Troy, AL

1:42 PM CDT on April 25, 2017 (GMT -0500)
Troy Municipal

Weather History for KTOI - May, 2014

Change the Weather History Date:

Tuesday, May 6, 2014

  Actual Average Record
Temperature  
Mean Temperature 70 °F 69 °F  
Max Temperature 86 °F 82 °F 89 °F (2003)
Min Temperature 53 °F 55 °F 41 °F (2011)
Cooling Degree Days 5 5  
Month to date cooling degree days 15 25  
Year to date cooling degree days 98 102  
Growing Degree Days 22 (Base 50)    
Moisture  
Dew Point 56 °F    
Average Humidity 63    
Maximum Humidity 93    
Minimum Humidity 32    
Precipitation  
Precipitation 0.00 in 0.10 in 0.27 in (1999)
Month to date precipitation T 0.54  
Year to date precipitation 24.72 19.69  
Sea Level Pressure  
Sea Level Pressure 29.99 in    
Wind  
Wind Speed 3 mph (SW)    
Max Wind Speed 12 mph    
Max Gust Speed 17 mph    
Visibility 10 miles    
Events      
T = Trace of Precipitation, MM = Missing Value Source: NWS Daily Summary

Daily Weather History Graph

Daily Weather History Graph

Search for Another Location

Airport or City:

Trip Planner

Search our weather history database for the weather conditions in past years. The results will help you decide how hot, cold, wet, or windy it might be!

Date:

Astronomy

May. 06, 2014 Rise Set
Actual Time 5:53 AM CDT 7:27 PM CDT
Civil Twilight 5:27 AM CDT 7:54 PM CDT
Nautical Twilight 4:56 AM CDT 8:25 PM CDT
Astronomical Twilight 4:23 AM CDT 8:58 PM CDT
Moon 12:05 PM CDT (5/6) 12:50 AM CDT (5/6)
Length of Visible Light 14h 26m
Length of Day
13h 34m
Waxing Crescent, 46% of the Moon is Illuminated
May 6
Waxing Crescent
May 6
First Quarter
May 14
Full
May 21
Last Quarter
May 28
New

Hourly Weather History & Observations

Time (CDT) Temp. Heat Index Dew Point Humidity Pressure Visibility Wind Dir Wind Speed Gust Speed Precip Events Conditions
12:53 AM 64.0 °F - 55.0 °F 73% 29.99 in 10.0 mi Calm Calm - N/A   Clear
1:53 AM 60.1 °F - 55.0 °F 83% 29.97 in 10.0 mi Calm Calm - N/A   Clear
2:53 AM 57.0 °F - 55.0 °F 93% 29.96 in 10.0 mi Calm Calm - N/A   Clear
6:53 AM 57.9 °F - 55.0 °F 90% 30.02 in 10.0 mi Calm Calm - N/A   Clear
7:53 AM 64.0 °F - 57.9 °F 80% 30.04 in 10.0 mi SSW 4.6 mph - N/A   Clear
9:53 AM 75.9 °F - 57.0 °F 52% 30.04 in 10.0 mi Variable 6.9 mph - N/A   Clear
10:53 AM 78.1 °F - 57.0 °F 48% 30.04 in 10.0 mi Variable 3.5 mph - N/A   Clear
11:53 AM 80.1 °F 80.2 °F 55.9 °F 43% 30.03 in 10.0 mi Variable 5.8 mph - N/A   Clear
12:53 PM 82.0 °F - 51.1 °F 34% 30.01 in 10.0 mi SW 5.8 mph - N/A   Clear
1:53 PM 84.0 °F 82.6 °F 54.0 °F 35% 30.00 in 10.0 mi WSW 8.1 mph - N/A   Clear
2:53 PM 84.9 °F 83.6 °F 55.0 °F 36% 29.98 in 10.0 mi Variable 5.8 mph - N/A   Clear
3:53 PM 86.0 °F 84.7 °F 55.9 °F 36% 29.96 in 10.0 mi SSW 11.5 mph - N/A   Clear
4:53 PM 86.0 °F 84.0 °F 53.1 °F 32% 29.96 in 10.0 mi SW 8.1 mph - N/A   Clear
5:53 PM 84.0 °F 82.6 °F 54.0 °F 35% 29.96 in 10.0 mi SW 5.8 mph - N/A   Clear
6:53 PM 80.1 °F 80.2 °F 55.9 °F 43% 29.96 in 10.0 mi South 3.5 mph - N/A   Clear
7:53 PM 73.0 °F - 59.0 °F 61% 29.96 in 10.0 mi Calm Calm - N/A   Clear
8:53 PM 66.9 °F - 59.0 °F 76% 29.98 in 10.0 mi Calm Calm - N/A   Clear
9:53 PM 69.1 °F - 57.0 °F 65% 29.99 in 10.0 mi SSW 4.6 mph - N/A   Clear
10:53 PM 66.9 °F - 55.0 °F 66% 30.01 in 10.0 mi Calm Calm - N/A   Clear
11:53 PM 63.0 °F - 55.0 °F 75% 30.02 in 10.0 mi Calm Calm - N/A   Clear